Time,TemperatureF,DewpointF,PressureIn,WindDirection,WindDirectionDegrees,WindSpeedMPH,WindSpeedGustMPH,Humidity,HourlyPrecipIn,Conditions,Clouds,dailyrainin,SoftwareType,DateUTC
2013-01-16 00:05:00,-999.9,-99.9,30.26,North,32767,-999.0,0.0,255,-99.99,,,0.00,Wunderground v.1.15,2013-01-16 07:05:00,
2013-01-16 00:15:00,-999.9,-99.9,30.25,North,32767,-999.0,0.0,255,-99.99,,,0.00,Wunderground v.1.15,2013-01-16 07:15:00,
2013-01-16 00:25:00,-999.9,-99.9,30.25,North,32767,-999.0,0.0,255,-99.99,,,0.00,Wunderground v.1.15,2013-01-16 07:25:00,
2013-01-16 00:30:00,-999.9,-99.9,30.25,North,32767,-999.0,0.0,255,-99.99,,,0.00,Wunderground v.1.15,2013-01-16 07:30:00,
2013-01-16 00:40:00,-999.9,-99.9,30.25,North,32767,-999.0,0.0,255,-99.99,,,0.00,Wunderground v.1.15,2013-01-16 07:40:00,
2013-01-16 00:50:00,-999.9,-99.9,30.25,North,32767,-999.0,0.0,255,-99.99,,,0.00,Wunderground v.1.15,2013-01-16 07:50:00,
2013-01-16 01:00:00,-999.9,-99.9,30.25,North,32767,-999.0,0.0,255,-99.99,,,0.00,Wunderground v.1.15,2013-01-16 08:00:00,
2013-01-16 01:10:00,26.3,2.9,30.25,NW,311,0.0,0.0,36,0.00,,,0.00,Wunderground v.1.15,2013-01-16 08:10:00,
2013-01-16 01:15:00,26.6,2.6,30.31,NW,311,0.0,0.0,35,0.00,,,0.00,Wunderground v.1.15,2013-01-16 08:15:00,
2013-01-16 01:25:00,26.1,3.3,30.31,NW,311,0.0,0.0,37,0.00,,,0.00,Wunderground v.1.15,2013-01-16 08:25:00,
2013-01-16 01:35:00,25.4,3.3,30.31,NW,311,0.0,0.0,38,0.00,,,0.00,Wunderground v.1.15,2013-01-16 08:35:00,
2013-01-16 01:45:00,25.4,3.3,30.32,NW,311,0.0,0.0,38,0.00,,,0.00,Wunderground v.1.15,2013-01-16 08:45:00,
2013-01-16 01:50:00,25.4,3.3,30.32,NW,311,0.0,0.0,38,0.00,,,0.00,Wunderground v.1.15,2013-01-16 08:50:00,
2013-01-16 02:00:00,25.6,4.0,30.31,NW,311,0.0,1.0,39,0.00,,,0.00,Wunderground v.1.15,2013-01-16 09:00:00,
2013-01-16 02:10:00,25.6,2.9,30.31,NW,311,1.0,1.0,37,0.00,,,0.00,Wunderground v.1.15,2013-01-16 09:10:00,
2013-01-16 02:20:00,25.7,4.1,30.31,NW,311,0.0,0.0,39,0.00,,,0.00,Wunderground v.1.15,2013-01-16 09:20:00,
2013-01-16 02:30:00,26.1,3.9,30.31,NW,311,0.0,0.0,38,0.00,,,0.00,Wunderground v.1.15,2013-01-16 09:30:00,
2013-01-16 02:35:00,26.6,4.4,30.31,NW,311,0.0,0.0,38,0.00,,,0.00,Wunderground v.1.15,2013-01-16 09:35:00,
2013-01-16 02:45:00,27.0,-99.9,30.31,NW,311,0.0,0.0,255,0.00,,,0.00,Wunderground v.1.15,2013-01-16 09:45:00,
2013-01-16 02:55:00,27.3,4.4,30.31,NW,311,0.0,0.0,37,0.00,,,0.00,Wunderground v.1.15,2013-01-16 09:55:00,
2013-01-16 03:05:00,26.4,4.8,30.32,NW,311,0.0,0.0,39,0.00,,,0.00,Wunderground v.1.15,2013-01-16 10:05:00,
2013-01-16 03:10:00,25.8,4.2,30.32,NW,311,0.0,0.0,39,0.00,,,0.00,Wunderground v.1.15,2013-01-16 10:10:00,
2013-01-16 03:20:00,25.1,4.7,30.31,NW,311,1.0,1.0,41,0.00,,,0.00,Wunderground v.1.15,2013-01-16 10:20:00,
2013-01-16 03:30:00,25.1,4.1,30.31,NW,311,0.0,0.0,40,0.00,,,0.00,Wunderground v.1.15,2013-01-16 10:30:00,
2013-01-16 03:35:00,25.0,4.0,30.31,NW,311,0.0,1.0,40,0.00,,,0.00,Wunderground v.1.15,2013-01-16 10:35:00,
2013-01-16 03:45:00,24.5,4.1,30.31,NW,311,0.0,0.0,41,0.00,,,0.00,Wunderground v.1.15,2013-01-16 10:45:00,
2013-01-16 03:55:00,24.2,4.4,30.31,NW,311,0.0,0.0,42,0.00,,,0.00,Wunderground v.1.15,2013-01-16 10:55:00,
2013-01-16 04:00:00,24.1,4.8,30.31,NW,311,0.0,1.0,43,0.00,,,0.00,Wunderground v.1.15,2013-01-16 11:00:00,
2013-01-16 04:05:00,24.5,4.1,30.31,NW,311,0.0,1.0,41,0.00,,,0.00,Wunderground v.1.15,2013-01-16 11:05:00,
2013-01-16 04:15:00,24.8,4.9,30.31,NW,311,1.0,1.0,42,0.00,,,0.00,Wunderground v.1.15,2013-01-16 11:15:00,
2013-01-16 04:25:00,24.7,4.3,30.31,NW,311,0.0,1.0,41,0.00,,,0.00,Wunderground v.1.15,2013-01-16 11:25:00,
2013-01-16 04:35:00,23.6,4.3,30.30,NW,311,0.0,0.0,43,0.00,,,0.00,Wunderground v.1.15,2013-01-16 11:35:00,
2013-01-16 04:45:00,23.3,4.6,30.30,NW,311,0.0,0.0,44,0.00,,,0.00,Wunderground v.1.15,2013-01-16 11:45:00,
2013-01-16 04:50:00,23.3,4.6,30.30,NW,311,0.0,0.0,44,0.00,,,0.00,Wunderground v.1.15,2013-01-16 11:50:00,
2013-01-16 05:00:00,23.6,4.8,30.29,NW,311,0.0,0.0,44,0.00,,,0.00,Wunderground v.1.15,2013-01-16 12:00:00,
2013-01-16 05:10:00,23.0,4.3,30.29,NW,311,0.0,0.0,44,0.00,,,0.00,Wunderground v.1.15,2013-01-16 12:10:00,
2013-01-16 05:20:00,22.4,4.2,30.32,NW,311,0.0,0.0,45,0.00,,,0.00,Wunderground v.1.15,2013-01-16 12:20:00,
2013-01-16 05:25:00,22.1,5.4,30.32,NW,311,0.0,0.0,48,0.00,,,0.00,Wunderground v.1.15,2013-01-16 12:25:00,
2013-01-16 05:35:00,22.4,5.6,30.31,NW,309,1.0,3.0,48,0.00,,,0.00,Wunderground v.1.15,2013-01-16 12:35:00,
2013-01-16 05:45:00,23.0,4.8,30.31,NW,309,1.0,2.0,45,0.00,,,0.00,Wunderground v.1.15,2013-01-16 12:45:00,
2013-01-16 05:55:00,23.5,4.8,30.31,NW,309,1.0,1.0,44,0.00,,,0.00,Wunderground v.1.15,2013-01-16 12:55:00,
2013-01-16 06:05:00,23.2,5.0,30.30,NW,309,0.0,1.0,45,0.00,,,0.00,Wunderground v.1.15,2013-01-16 13:05:00,
2013-01-16 06:10:00,23.3,4.6,30.30,NW,309,1.0,1.0,44,0.00,,,0.00,Wunderground v.1.15,2013-01-16 13:10:00,
2013-01-16 06:20:00,23.0,4.8,30.31,NW,309,1.0,1.0,45,0.00,,,0.00,Wunderground v.1.15,2013-01-16 13:20:00,
2013-01-16 06:30:00,23.9,3.6,30.31,NW,309,1.0,1.0,41,0.00,,,0.00,Wunderground v.1.15,2013-01-16 13:30:00,
2013-01-16 06:40:00,24.2,3.3,30.31,NW,309,0.0,0.0,40,0.00,,,0.00,Wunderground v.1.15,2013-01-16 13:40:00,
2013-01-16 06:45:00,24.1,4.8,30.32,NW,309,0.0,0.0,43,0.00,,,0.00,Wunderground v.1.15,2013-01-16 13:45:00,
2013-01-16 06:55:00,24.1,4.3,30.32,NW,309,1.0,1.0,42,0.00,,,0.00,Wunderground v.1.15,2013-01-16 13:55:00,
2013-01-16 07:05:00,23.8,4.5,30.32,NW,309,1.0,1.0,43,0.00,,,0.00,Wunderground v.1.15,2013-01-16 14:05:00,
2013-01-16 07:15:00,23.6,4.3,30.32,NW,309,0.0,1.0,43,0.00,,,0.00,Wunderground v.1.15,2013-01-16 14:15:00,
2013-01-16 07:25:00,23.9,3.6,30.32,NW,309,2.0,2.0,41,0.00,,,0.00,Wunderground v.1.15,2013-01-16 14:25:00,
2013-01-16 07:30:00,24.2,3.3,30.32,NW,309,2.0,2.0,40,0.00,,,0.00,Wunderground v.1.15,2013-01-16 14:30:00,
2013-01-16 07:40:00,25.3,3.2,30.32,NW,309,3.0,3.0,38,0.00,,,0.00,Wunderground v.1.15,2013-01-16 14:40:00,
2013-01-16 07:50:00,26.9,2.2,30.31,NW,305,3.0,3.0,34,0.00,,,0.00,Wunderground v.1.15,2013-01-16 14:50:00,
2013-01-16 08:00:00,28.5,1.6,30.30,WNW,302,2.0,3.0,31,0.00,,,0.00,Wunderground v.1.15,2013-01-16 15:00:00,
2013-01-16 08:10:00,31.3,1.1,30.30,WNW,301,1.0,1.0,27,0.00,,,0.00,Wunderground v.1.15,2013-01-16 15:10:00,
2013-01-16 08:15:00,32.5,2.2,30.30,WNW,301,1.0,4.0,27,0.00,,,0.00,Wunderground v.1.15,2013-01-16 15:15:00,
2013-01-16 08:25:00,34.0,4.3,30.30,WNW,301,1.0,1.0,28,0.00,,,0.00,Wunderground v.1.15,2013-01-16 15:25:00,
2013-01-16 08:35:00,31.8,4.5,30.31,North,0,1.0,3.0,31,0.00,,,0.00,Wunderground v.1.15,2013-01-16 15:35:00,
2013-01-16 08:40:00,31.6,4.4,30.31,North,0,2.0,2.0,31,0.00,,,0.00,Wunderground v.1.15,2013-01-16 15:40:00,
2013-01-16 08:50:00,32.7,5.3,30.32,North,0,1.0,1.0,31,0.00,,,0.00,Wunderground v.1.15,2013-01-16 15:50:00,
2013-01-16 08:55:00,33.5,5.3,30.32,North,0,0.0,1.0,30,0.00,,,0.00,Wunderground v.1.15,2013-01-16 15:55:00,
2013-01-16 09:05:00,34.9,5.8,30.32,North,0,0.0,1.0,29,0.00,,,0.00,Wunderground v.1.15,2013-01-16 16:05:00,
2013-01-16 09:10:00,35.8,5.0,30.32,North,0,0.0,0.0,27,0.00,,,0.00,Wunderground v.1.15,2013-01-16 16:10:00,
2013-01-16 09:20:00,38.6,6.6,30.33,North,0,0.0,0.0,26,0.00,,,0.00,Wunderground v.1.15,2013-01-16 16:20:00,
2013-01-16 09:30:00,39.5,7.4,30.32,NNE,20,1.0,1.0,26,0.00,,,0.00,Wunderground v.1.15,2013-01-16 16:30:00,